{"data":{"norad_id":67383,"epoch":"2026-09-20T13:25:19.338240Z","epoch_age_seconds":95272,"freshness":"FRESH","line1":"1 67383U 26004W   26263.55925160  .00000538  00000+0  67947-4 0  9993","line2":"2 67383  97.8078 260.2742 0000338 151.2300 208.8934 14.85843603 37441","mean_motion":14.85843603,"eccentricity":3.38e-5,"inclination_deg":97.8078,"raan_deg":260.2742,"arg_perigee_deg":151.23,"mean_anomaly_deg":208.8934,"bstar":6.7947e-5,"rev_number":3744,"period_min":96.914641426094,"perigee_km":610.70296818082,"apogee_km":611.17542973187,"semimajor_km":6989.0761989563,"source":"CELESTRAK","updated_at":"2026-09-21T09:00:16.596656Z"}}